Theta_e
323 320 319 320 322 324 325 325 333 337 340 340 338 336 339 337 338 338 334 334 334 334 334 333 333 333 333 332 330 325 324 324 324 323 324 321 320 319 318 317 319 320 320 318
322 321 322 325 327 326 325 326 336 336 338 339 333 340 335 337 336 334 333 334 334 334 334 334 334 333 330 331 328 323 323 325 325 325 323 320 319 319 318 316 316 317 317 316
323 325 326 327 326 327 326 329 335 334 336 336 338 338 338 333 333 336 339 335 335 335 335 335 333 330 326 324 322 323 325 325 325 324 320 318 317 316 315 315 315 314 312 313
325 326 328 327 327 328 327 329 329 327 326 327 334 339 334 334 333 335 339 337 336 336 334 332 324 323 322 321 321 325 326 324 323 321 318 317 316 314 314 313 312 312 312 312
326 326 327 327 329 327 328 329 328 330 326 329 340 347 344 338 336 333 336 334 337 334 329 326 324 323 321 322 324 325 322 320 319 318 317 316 314 312 312 311 310 308 308 309
326 328 327 329 328 327 327 327 327 329 327 333 340 343 346 339 338 335 332 338 333 328 325 324 324 321 321 322 322 321 320 319 318 317 315 314 313 312 310 309 308 308 307 307
327 327 328 328 327 328 327 328 327 329 333 335 341 340 339 340 338 339 335 332 328 326 325 324 322 322 322 321 321 320 319 318 317 315 314 313 312 310 309 309 307 306 306 306
329 328 326 327 326 329 329 328 329 331 326 341 339 344 346 340 338 336 333 328 327 326 322 322 321 320 320 320 321 319 319 317 314 314 313 309 307 309 308 308 307 306 305 304
336 332 327 327 328 327 328 330 332 333 332 338 340 339 338 339 336 332 328 327 324 322 322 321 320 320 320 319 319 317 316 312 314 313 311 307 307 307 308 306 305 304 303 303
334 335 330 329 328 327 328 330 328 329 331 343 344 340 340 335 332 328 326 324 321 322 321 320 320 319 319 320 319 316 313 312 312 312 311 308 307 307 307 305 303 302 302 301
329 334 332 329 330 329 327 328 332 329 332 333 342 340 333 330 327 324 323 321 322 322 321 319 319 318 318 318 317 313 311 312 312 311 308 307 306 305 304 303 302 301 301 300
331 333 333 332 329 328 327 330 329 329 330 329 335 338 330 327 325 323 321 322 321 321 320 319 319 318 317 317 315 310 311 312 311 309 307 305 305 304 303 303 301 301 301 300
334 335 329 333 332 331 328 327 329 328 329 336 340 337 328 326 323 322 321 320 320 320 320 318 317 318 318 316 311 310 311 311 308 306 304 305 305 303 303 302 302 302 302 301
335 331 333 333 337 333 330 328 329 329 329 337 335 330 327 325 321 322 321 321 320 319 318 317 318 319 317 314 310 311 310 308 307 304 305 304 304 304 303 302 302 303 302 301
333 331 330 328 330 328 327 328 328 328 329 334 330 328 325 321 320 322 321 320 318 318 317 317 317 318 315 311 311 310 309 307 306 303 304 304 304 304 304 303 303 303 303 302
331 332 330 327 327 327 327 328 328 326 329 328 327 325 321 322 322 321 319 318 317 317 317 316 319 317 313 312 311 310 308 306 304 304 304 304 304 304 304 304 304 304 303 302
331 332 330 328 327 328 331 329 328 326 325 325 324 321 321 321 320 319 317 317 317 317 316 318 318 315 312 311 310 309 307 306 304 305 306 306 306 305 305 306 306 304 303 303
332 333 332 330 328 332 330 325 327 327 326 323 321 319 322 320 318 317 316 316 316 316 316 318 317 312 313 311 311 309 306 305 305 305 306 307 305 306 306 305 305 305 304 304
329 332 335 330 331 333 329 328 328 328 328 324 320 320 321 319 317 316 316 316 316 316 317 317 315 314 312 312 311 308 306 305 306 304 306 306 305 306 306 306 305 304 305 304
331 332 335 332 334 339 329 325 327 329 330 322 320 321 321 321 320 315 316 316 316 316 316 317 314 312 311 312 311 308 306 305 305 304 305 306 306 306 306 305 305 306 305 304
330 331 334 332 337 332 327 324 327 333 329 321 320 322 322 318 318 316 316 316 316 317 317 315 313 312 312 311 311 307 306 305 305 304 305 307 306 306 306 306 305 305 306 305
331 329 332 335 334 334 330 331 332 327 321 320 321 321 319 317 316 316 316 316 316 316 315 315 313 312 311 311 311 308 306 305 305 304 306 306 306 307 306 306 305 305 305 305
336 336 337 337 334 330 329 326 323 320 321 321 321 320 317 316 315 316 317 317 317 316 315 314 312 312 313 312 311 309 307 306 305 305 305 306 306 306 305 306 305 305 305 305
335 334 330 329 328 326 323 322 320 319 321 321 320 318 316 316 316 317 317 317 317 316 315 313 313 313 315 314 312 310 308 306 305 305 305 306 306 306 306 307 306 305 305 304
330 330 331 329 327 324 322 319 319 320 320 320 319 317 316 316 317 317 317 317 316 315 314 313 313 313 315 315 313 310 308 306 306 306 305 305 306 307 307 308 308 306 305 306
330 331 330 328 326 326 321 318 319 319 319 319 318 317 317 317 317 317 317 317 316 315 314 313 313 313 314 314 312 309 307 306 306 305 305 305 306 306 307 308 308 308 308 306
Wind_Speed
17 3 8 13 13 18 11 7 6 18 18 14 16 13 21 19 37 27 17 14 11 7 5 5 7 12 15 16 21 25 27 21 19 19 18 20 18 20 21 27 22 26 27 29
5 12 18 16 17 4 10 10 7 22 19 19 7 20 9 15 21 25 17 20 16 11 4 0 5 11 11 10 17 23 24 19 18 18 19 21 20 21 23 26 25 29 31 32
10 17 18 11 5 3 9 6 3 5 14 15 18 5 5 4 11 15 9 16 13 8 5 4 9 9 12 14 18 21 15 12 15 17 23 26 26 27 32 30 28 25 26 28
10 25 7 2 6 4 4 7 10 6 5 4 6 3 2 6 9 10 5 16 11 7 8 9 17 13 15 15 19 11 8 9 13 20 26 30 29 27 23 24 23 22 22 25
13 5 2 5 0 4 2 7 7 5 6 3 4 7 1 2 5 8 4 7 10 7 13 11 10 13 13 18 12 13 11 17 23 28 30 32 29 26 23 24 26 29 27 27
13 10 4 2 5 4 5 5 7 4 2 3 4 6 2 4 5 2 3 7 9 16 14 6 8 15 15 16 17 19 20 23 27 29 33 31 29 30 28 28 28 28 31 31
7 5 2 5 3 3 4 4 4 6 2 3 6 11 3 2 7 14 15 18 18 10 5 5 23 24 24 24 21 20 21 22 26 28 28 28 29 31 27 26 29 31 30 32
5 3 9 4 5 3 4 4 4 2 1 4 6 5 6 12 24 30 23 21 10 11 34 33 29 26 22 19 18 20 20 22 24 23 26 28 25 23 22 22 27 27 29 30
4 4 6 7 4 4 6 4 2 1 3 6 4 7 3 6 13 21 18 16 20 31 28 25 23 22 21 20 21 23 20 22 23 24 27 26 23 22 21 25 25 26 27 26
4 2 6 6 3 6 2 2 5 4 3 5 5 8 5 6 9 8 14 20 27 31 28 28 26 23 22 18 21 24 22 23 22 23 26 27 24 23 22 25 28 26 23 23
4 3 1 5 3 5 6 6 4 3 3 2 4 3 6 8 8 8 21 30 33 28 25 23 20 17 16 18 21 23 21 23 22 23 29 23 22 23 26 26 26 23 23 24
2 3 2 3 6 7 8 7 5 5 5 2 5 1 7 8 16 24 25 27 28 25 24 21 18 18 20 21 23 23 21 21 22 25 24 18 20 26 28 27 26 25 26 26
3 4 3 4 7 7 7 6 6 3 3 3 4 3 9 17 20 25 24 26 24 20 18 18 20 20 18 20 21 22 21 21 23 25 22 22 26 28 26 25 23 25 30 28
1 4 3 4 4 5 6 9 9 6 4 3 10 9 8 8 9 20 24 25 25 22 19 18 18 16 18 19 19 20 20 23 25 20 25 28 26 26 25 24 25 27 28 29
4 1 2 6 7 10 9 9 9 8 4 8 8 11 7 7 11 20 23 19 19 18 18 16 15 15 16 17 19 18 20 23 25 23 25 27 26 26 25 25 25 25 26 27
4 1 3 3 7 10 10 7 13 10 12 15 14 10 11 21 25 24 20 17 16 14 13 12 11 14 15 15 17 16 22 21 21 24 26 23 24 26 28 28 27 24 22 22
2 2 3 2 9 9 6 5 10 11 9 9 7 5 17 14 18 18 16 15 13 12 11 11 13 13 12 17 13 17 20 16 19 23 22 23 23 24 25 25 27 28 24 19
2 3 2 3 5 3 3 6 13 12 10 9 9 9 20 22 21 17 13 13 12 10 8 11 11 11 15 14 11 16 19 17 17 18 19 21 21 22 26 29 26 24 24 24
1 3 2 4 3 5 6 2 4 7 5 7 9 12 25 26 22 17 12 12 11 10 9 9 12 14 12 9 11 17 17 15 16 14 17 21 23 22 24 24 25 22 23 25
1 4 3 2 3 4 3 6 14 16 3 11 16 11 7 19 2 4 10 12 9 7 8 10 10 10 10 6 11 15 15 14 12 11 16 19 21 22 25 26 24 25 23 18
0 2 3 3 4 4 4 8 3 2 6 17 15 12 13 6 10 16 13 11 9 8 7 6 10 11 9 9 13 13 14 14 11 11 15 18 20 19 21 20 22 21 23 25
5 5 0 3 5 3 8 6 1 11 21 19 14 18 23 19 18 15 14 12 10 7 6 6 8 9 7 8 12 12 13 11 11 11 13 16 16 17 19 23 20 21 22 25
3 4 4 2 4 6 19 25 23 21 22 19 17 17 19 20 17 17 14 12 9 7 6 3 7 6 6 8 10 13 12 9 10 10 10 13 15 15 15 19 20 18 19 18
4 10 5 5 5 14 22 22 21 19 19 17 15 15 18 19 18 16 13 10 8 7 5 5 6 5 1 4 9 13 14 7 10 9 10 9 11 12 13 18 19 17 21 23
5 8 7 6 13 19 18 18 20 18 17 16 16 16 18 20 18 15 13 10 9 8 4 3 4 5 3 4 9 10 13 7 4 6 9 6 8 10 13 15 14 13 15 19
1 7 4 4 26 10 22 20 18 19 17 16 18 18 17 19 17 14 12 10 8 5 2 3 2 6 3 2 7 9 13 8 6 5 6 5 7 8 9 13 12 11 10 16
Wind_Direction
251 203 234 242 242 251 262 304 57 99 130 84 121 135 123 170 196 235 159 136 147 138 121 15 6 27 15 9 2 4 10 15 12 20 14 14 17 360 353 344 335 333 333 328
289 232 242 242 250 311 321 304 68 146 133 111 135 107 131 161 150 163 172 157 161 142 158 242 41 22 8 12 5 8 7 10 15 4 1 11 3 355 346 343 331 328 325 320
220 248 243 245 326 258 273 313 162 102 101 88 114 66 77 37 131 185 4 146 143 182 210 187 44 19 47 31 31 21 13 18 7 9 360 356 349 349 346 346 338 338 337 342
243 253 241 244 263 296 3 352 15 33 29 227 174 93 214 161 243 282 7 77 138 190 106 105 87 54 36 44 30 42 33 32 10 357 358 4 6 9 356 353 349 344 347 351
273 122 210 275 76 53 218 26 332 324 321 359 94 92 166 129 218 244 260 129 235 107 82 100 77 32 50 66 65 78 41 18 5 3 1 360 6 12 3 358 357 0 4 3
271 177 187 52 70 58 317 319 316 299 213 24 12 100 229 204 224 208 245 194 160 113 102 85 32 69 79 74 60 36 21 14 6 360 356 1 8 7 6 7 8 4 0 4
277 176 253 82 346 238 251 39 336 3 27 95 93 64 232 280 76 105 127 144 127 109 99 76 84 76 64 55 45 32 19 12 3 359 6 11 3 354 1 3 4 359 358 357
265 269 182 132 224 244 346 128 124 338 341 166 32 70 8 87 125 140 139 116 103 95 87 86 69 64 65 53 46 31 9 5 2 19 11 3 7 9 2 5 6 1 356 354
326 350 111 135 34 66 324 26 234 82 305 71 85 121 61 146 127 114 113 99 76 96 88 84 71 58 45 36 26 22 16 17 23 14 12 13 13 20 16 9 6 357 354 348
309 330 156 108 51 280 193 274 31 358 18 96 95 66 104 70 118 107 92 80 74 83 75 71 64 58 47 38 19 16 22 32 27 14 11 15 22 20 14 10 2 1 360 3
2 18 3 111 9 66 36 31 28 111 60 107 124 75 127 109 81 81 69 71 81 79 72 59 57 55 41 19 14 24 33 33 25 13 7 15 14 21 13 9 10 19 20 18
27 117 20 113 76 46 86 85 91 105 326 269 95 150 99 100 79 76 81 82 80 74 65 63 61 35 30 24 21 31 36 31 22 9 8 24 20 22 17 24 26 28 25 24
324 354 21 16 9 29 71 55 81 101 85 342 97 159 88 85 77 81 76 79 77 70 62 47 35 46 36 26 27 37 38 27 13 12 38 33 28 26 25 28 31 26 28 24
75 44 114 185 181 119 85 72 68 77 57 62 113 111 81 70 79 86 78 77 67 58 60 49 51 51 38 29 37 38 35 17 20 39 32 30 29 27 29 29 23 23 30 34
80 47 2 300 90 78 78 79 68 60 45 107 110 96 101 90 82 79 75 65 53 48 52 53 45 46 36 41 45 36 26 23 18 41 45 39 35 30 34 30 29 30 35 35
20 304 322 74 82 92 87 79 85 61 53 98 104 95 114 89 82 73 71 66 63 61 57 51 56 43 38 51 49 30 24 22 37 50 48 38 38 39 37 35 31 29 33 37
87 103 46 189 114 107 66 66 99 86 64 103 94 121 88 80 80 80 78 78 81 75 55 63 58 48 58 52 41 31 23 36 44 49 42 32 32 35 28 24 26 31 35 37
106 108 96 220 109 145 163 81 106 100 77 90 88 85 110 107 94 87 83 95 99 82 70 60 55 66 62 50 34 21 30 42 43 47 44 30 34 39 39 31 29 39 42 44
336 111 347 127 108 120 121 123 129 122 74 68 96 89 125 117 96 76 87 101 106 94 75 64 48 70 52 48 16 12 40 36 42 35 39 42 37 33 30 33 38 45 48 49
215 103 116 355 143 161 128 101 119 111 107 89 99 91 88 172 91 129 110 112 109 94 97 101 62 50 39 36 9 25 39 30 34 58 55 38 37 40 39 37 42 40 42 49
66 19 220 268 101 54 111 112 161 180 192 110 106 100 102 89 122 130 134 117 102 88 96 81 67 61 52 6 360 44 36 37 41 56 66 47 38 37 35 32 34 49 47 47
154 159 226 305 97 144 350 77 228 138 123 119 108 122 116 120 126 128 126 121 115 105 119 97 58 59 39 0 15 39 40 33 52 73 58 48 43 41 38 36 49 57 56 54
52 140 129 39 145 87 85 109 122 127 116 123 118 124 126 130 129 133 126 123 113 105 117 78 53 41 16 10 24 20 32 34 71 69 52 55 46 44 42 37 45 48 47 50
109 123 110 95 111 103 102 108 117 123 120 123 128 130 135 134 136 133 129 127 118 120 105 68 63 42 96 351 18 22 19 38 83 64 54 49 40 36 51 27 38 46 47 48
159 98 122 88 127 124 120 123 123 122 124 128 131 131 136 136 136 133 133 126 129 117 104 38 45 24 36 343 8 30 5 25 67 59 56 59 34 50 27 14 22 29 45 41
29 156 132 199 165 152 145 141 139 135 132 132 132 130 137 142 137 139 140 141 139 127 89 36 6 0 22 336 10 19 14 64 64 25 37 48 18 35 24 359 9 6 9 39